Regional Weather Roundup
Issued by NWS Mt. Holly, NJ

Home | Current Version | Previous Version | Text Only | Print | Product List | Glossary On
Versions: 1 2 3 4 5 6 7 8 9 10 11 12 13 14 15 16 17 18 19 20 21 22 23 24 25 26 27 28 29 30 31 32 33 34 35 36 37 38 39 40 41 42 43 44 45 46 47 48 49 50
000
ASUS41 KPHI 170210
RWRPHI

REGIONAL WEATHER ROUNDUP
NATIONAL WEATHER SERVICE MOUNT HOLLY NJ
1000 PM EDT TUE SEP 16 2014

NOTE:  "FAIR" INDICATES FEW OR NO CLOUDS BELOW 12,000 FEET WITH NO
SIGNIFICANT WEATHER AND/OR OBSTRUCTIONS TO VISIBILITY.

 * = STATION DOES NOT REPORT PRECIPITATION (E.G. RAIN, SNOW, ETC.)
        OR FOG.

NJZ015>026-170300-
SOUTHERN NEW JERSEY

CITY           SKY/WX    TMP DP  RH WIND       PRES   REMARKS
POMONA         PTCLDY    60  58  92 CALM      30.02R
RIO GRANDE*    PTCLDY    63  55  77 N5        30.02R
MILLVILLE      PTCLDY    60  56  86 N6        30.02R
WRIGHTSTOWN    PTCLDY    59  55  88 N2        30.00R
MOUNT HOLLY    PTCLDY    56  53  90 CALM      30.02R
TRENTON        CLEAR     59  50  72 NE3       30.03R

$$
NJZ001>014-170300-
NORTHERN NEW JERSEY

CITY           SKY/WX    TMP DP  RH WIND       PRES   REMARKS
SUSSEX         CLEAR     52  48  86 CALM      30.04R FOG
ANDOVER*         N/A     51  50  96 CALM      30.05R
MORRISTOWN     PTCLDY    55  54  94 CALM      30.03S
NEWARK         MOCLDY    65  51  60 NW9       30.01S
TETERBORO      MOCLDY    64  51  62 NW3       30.00S
CALDWELL       CLOUDY    58  52  80 CALM      30.03R
SOMERVILLE     MOCLDY    53  51  93 CALM      30.01S
ALLAIRE*       CLEAR     59  54  82 S3        30.02R
TOMS RIVER*    PTCLDY    55  54  94 CALM      30.02S

$$
PAZ043-044-047-054-055-060>062-066>071-170300-
EASTERN PENNSYLVANIA

CITY           SKY/WX    TMP DP  RH WIND       PRES   REMARKS
PHILADELPHIA   PTCLDY    66  50  56 N9        30.03R
NORTH PHILA    MOCLDY    63  49  60 N9        30.04R
BLUE BELL      PTCLDY    55  54  94 CALM      30.03S
DOYLESTOWN     CLOUDY    59  32  36 NE3       30.03R
QUAKERTOWN*    PTCLDY    57  52  82 CALM      30.05R
POTTSTOWN      CLOUDY    57  52  83 CALM      30.05R
COATESVILLE    MOCLDY    57  54  88 CALM      30.05S
READING        CLEAR     58  51  78 CALM      30.03S
ALLENTOWN      CLEAR     56  48  74 CALM      30.04R
MOUNT POCONO   CLEAR     46  44  93 CALM      30.06R
HAZLETON       PTCLDY    50  48  93 CALM      30.08S FOG
WILKES BARRE   CLEAR     52  47  83 E7        30.05R

$$
DEZALL-MDZ008-012-015-019-020-170300-
DELAWARE AND EASTERN MARYLAND

CITY           SKY/WX    TMP DP  RH WIND       PRES   REMARKS
WILMINGTON     CLEAR     61  55  81 N6        30.03R
DOVER          CLEAR     60  55  83 N8        30.00R
GEORGETOWN     CLEAR     64  56  75 VRB6      30.01S
PATUXENT       PTCLDY    68  54  60 NE7       30.01R
OCEAN CITY     CLEAR     63  57  81 N5        30.00S
WALLOPS ISLAND CLEAR     66  59  78 N6        30.01R
CAMBRIDGE      CLEAR     63  55  77 CALM      30.01S
SALISBURY      CLEAR     64  57  78 CALM      30.01R

$$
PAZ001-021-NYZ056-072-MDZ011-DCZ001-170300-
OTHER NEARBY LOCATIONS

CITY           SKY/WX    TMP DP  RH WIND       PRES   REMARKS
HARRISBURG     PTCLDY    60  52  74 CALM      30.03S
STATE COLLEGE  PTCLDY    53  48  83 W3        30.06R
WILLIAMSPORT   MOCLDY    55  51  86 CALM      30.05R
BINGHAMTON     CLEAR     53  45  74 N7        30.05R
NEW YORK CITY  CLOUDY    66  49  54 VRB3      30.03F
BALTIMORE      PTCLDY    60  53  77 CALM      30.03R
WASHINGTON DC  PTCLDY    68  52  56 NE6       30.03R

$$



USA.gov is the U.S. government's official web portal to all federal, state and local government web resources and services.